| time (UTC) | temp F | wind direction | speed knots | gust knots | rain 1hr in | rain 24hr in | rain mn in | humidity % | barometer mb |
| 20260504184539 | 62 | 191 | 0.9 | 13.0 | 0.00 | 0.00 | 0.00 | 39 | 1001.7 |
| 20260504184035 | 61 | 210 | 5.2 | 12.2 | 0.00 | 0.00 | 0.00 | 40 | 1001.2 |
| 20260504183532 | 61 | 228 | 4.3 | 13.9 | 0.00 | 0.00 | 0.00 | 40 | 1001.6 |
| 20260504183030 | 61 | 182 | 8.7 | 15.6 | 0.00 | 0.00 | 0.00 | 39 | 1001.7 |
| 20260504182527 | 61 | 175 | 2.6 | 7.0 | 0.00 | 0.00 | 0.00 | 40 | 1001.5 |
| 20260504182024 | 62 | 238 | 4.3 | 13.0 | 0.00 | 0.00 | 0.00 | 39 | 1001.4 |
| 20260504181521 | 62 | 235 | 4.3 | 9.6 | 0.00 | 0.00 | 0.00 | 42 | 1001.2 |
| 20260504181020 | 62 | 243 | 5.2 | 11.3 | 0.00 | 0.00 | 0.00 | 41 | 1001.2 |
| 20260504180518 | 61 | 160 | 6.1 | 11.3 | 0.00 | 0.00 | 0.00 | 42 | 1001.2 |
| 20260504180017 | 62 | 116 | 4.3 | 13.0 | 0.00 | 0.00 | 0.00 | 42 | 1001.1 |
| 20260504175513 | 62 | 227 | 10.4 | 14.8 | 0.00 | 0.00 | 0.00 | 42 | 1001.1 |
| 20260504175010 | 61 | 151 | 6.1 | 13.0 | 0.00 | 0.00 | 0.00 | 43 | 1001.1 |
| 20260504174508 | 61 | 255 | 7.8 | 13.0 | 0.00 | 0.00 | 0.00 | 44 | 1001.1 |
| 20260504174005 | 61 | 237 | 3.5 | 9.6 | 0.00 | 0.00 | 0.00 | 44 | 1001.1 |
| 20260504173502 | 61 | 353 | 6.1 | 7.8 | 0.00 | 0.00 | 0.00 | 44 | 1001.1 |
| 20260504172959 | 60 | 214 | 4.3 | 13.9 | 0.00 | 0.00 | 0.00 | 45 | 1001.1 |
| 20260504172455 | 61 | 179 | 7.0 | 13.9 | 0.00 | 0.00 | 0.00 | 44 | 1000.9 |
| 20260504171952 | 61 | 262 | 6.1 | 19.1 | 0.00 | 0.00 | 0.00 | 44 | 1001.0 |
| 20260504171449 | 61 | 243 | 1.7 | 11.3 | 0.00 | 0.00 | 0.00 | 44 | 1000.9 |
| 20260504170946 | 61 | 160 | 7.0 | 13.9 | 0.00 | 0.00 | 0.00 | 43 | 1000.8 |
| 20260504170442 | 61 | 238 | 6.1 | 13.9 | 0.00 | 0.00 | 0.00 | 44 | 1000.9 |
| 20260504160401 | 61 | 236 | 7.8 | 15.6 | 0.00 | 0.00 | 0.00 | 43 | 1000.6 |
| 20260504150825 | 60 | 234 | 5.2 | 11.3 | 0.00 | 0.00 | 0.00 | 43 | 1000.2 |
| 20260504150322 | 59 | 173 | 8.7 | 12.2 | 0.00 | 0.00 | 0.00 | 43 | 1000.5 |
| 20260504141252 | 60 | 250 | 6.1 | 12.2 | 0.00 | 0.00 | 0.00 | 46 | 1000.1 |
| 20260504140749 | 60 | 214 | 8.7 | 12.2 | 0.00 | 0.00 | 0.00 | 47 | 1000.2 |
| 20260504140244 | 60 | 252 | 5.2 | 13.9 | 0.00 | 0.00 | 0.00 | 49 | 1000.0 |
| 20260504130713 | 60 | 214 | 3.5 | 13.9 | 0.00 | 0.00 | 0.00 | 50 | 999.1 |
| 20260504130209 | 60 | 234 | 5.2 | 8.7 | 0.00 | 0.00 | 0.00 | 50 | 999.2 |
| 20260504120133 | 60 | 201 | 9.6 | 14.8 | 0.00 | 0.00 | 0.00 | 47 | 998.6 |
| 20260504110600 | 59 | 152 | 2.6 | 6.1 | 0.00 | 0.00 | 0.00 | 46 | 998.1 |
| 20260504100522 | 56 | 160 | 1.7 | 1.7 | 0.00 | 0.00 | 0.00 | 51 | 999.0 |
| 20260504081916 | 54 | 92 | 0.0 | 2.6 | 0.00 | 0.00 | 0.00 | 51 | 1000.7 |
| 20260504081412 | 53 | 103 | 0.9 | 1.7 | 0.00 | 0.00 | 0.00 | 52 | 1000.7 |
| 20260504080908 | 54 | 73 | 0.9 | 1.7 | 0.00 | 0.00 | 0.00 | 52 | 1000.9 |
| 20260504080405 | 54 | 106 | 0.0 | 2.6 | 0.00 | 0.00 | 0.00 | 51 | 1001.0 |
| 20260504070333 | 56 | 118 | 1.7 | 4.3 | 0.00 | 0.00 | 0.00 | 49 | 1002.2 |
| 20260504050721 | 57 | 147 | 0.9 | 1.7 | 0.00 | 0.00 | 0.00 | 44 | 1004.2 |
| 20260504050218 | 57 | 110 | 0.0 | 1.7 | 0.00 | 0.00 | 0.00 | 44 | 1004.4 |
| 20260504045715 | 58 | 162 | 1.7 | 4.3 | 0.00 | 0.00 | 0.00 | 43 | 1004.4 |
| 20260504045215 | 58 | 125 | 1.7 | 4.3 | 0.00 | 0.00 | 0.00 | 43 | 1004.5 |
| 20260504044714 | 58 | 121 | 0.0 | 0.9 | 0.00 | 0.00 | 0.00 | 44 | 1004.5 |
| 20260504044211 | 58 | 162 | 0.9 | 1.7 | 0.00 | 0.00 | 0.00 | 43 | 1004.7 |
| 20260504043708 | 57 | 130 | 0.9 | 1.7 | 0.00 | 0.00 | 0.00 | 43 | 1004.9 |
| 20260504043204 | 57 | 125 | 0.0 | 1.7 | 0.00 | 0.00 | 0.00 | 44 | 1004.7 |
| 20260504042702 | 57 | 139 | 0.0 | 0.9 | 0.00 | 0.00 | 0.00 | 44 | 1004.7 |
| 20260504042158 | 57 | 122 | 0.9 | 2.6 | 0.00 | 0.00 | 0.00 | 44 | 1004.9 |
| 20260504041654 | 57 | 207 | 0.0 | 0.9 | 0.00 | 0.00 | 0.00 | 44 | 1005.2 |
| 20260504041150 | 58 | 167 | 0.0 | 0.9 | 0.00 | 0.00 | 0.00 | 43 | 1005.2 |
| 20260504040647 | 58 | 236 | 0.0 | 0.9 | 0.00 | 0.00 | 0.00 | 42 | 1005.2 |
| 20260504040144 | 58 | 159 | 3.5 | 5.2 | 0.00 | 0.00 | 0.00 | 44 | 1005.5 |
| 20260504035641 | 57 | 188 | 0.0 | 0.9 | 0.00 | 0.00 | 0.00 | 42 | 1005.7 |
| 20260504035138 | 57 | 181 | 0.0 | 0.0 | 0.00 | 0.00 | 0.00 | 43 | 1005.7 |
| 20260504034635 | 58 | 205 | 0.0 | 0.9 | 0.00 | 0.00 | 0.00 | 42 | 1005.9 |
| 20260504034132 | 57 | 165 | 0.0 | 0.9 | 0.00 | 0.00 | 0.00 | 43 | 1005.9 |
| 20260504033630 | 57 | 214 | 0.0 | 0.0 | 0.00 | 0.00 | 0.00 | 43 | 1006.0 |
| 20260504033127 | 57 | 244 | 0.0 | 0.9 | 0.00 | 0.00 | 0.00 | 42 | 1006.3 |
| 20260504032624 | 57 | 270 | 0.0 | 0.9 | 0.00 | 0.00 | 0.00 | 42 | 1006.2 |
| 20260504032121 | 57 | 213 | 0.0 | 0.0 | 0.00 | 0.00 | 0.00 | 42 | 1006.2 |
| 20260504031618 | 57 | 275 | 0.0 | 0.0 | 0.00 | 0.00 | 0.00 | 42 | 1006.4 |
| 20260504031114 | 57 | 275 | 0.0 | 0.0 | 0.00 | 0.00 | 0.00 | 42 | 1006.3 |
| 20260504030611 | 58 | 275 | 0.0 | 0.0 | 0.00 | 0.00 | 0.00 | 42 | 1006.4 |
| 20260504030108 | 58 | 275 | 0.0 | 0.0 | 0.00 | 0.00 | 0.00 | 41 | 1006.4 |
| 20260504025605 | 58 | 275 | 0.0 | 0.9 | 0.00 | 0.00 | 0.00 | 40 | 1006.4 |
| 20260504025101 | 58 | 262 | 0.0 | 0.9 | 0.00 | 0.00 | 0.00 | 41 | 1006.4 |
| 20260504024559 | 58 | 225 | 0.0 | 0.0 | 0.00 | 0.00 | 0.00 | 41 | 1006.4 |
| 20260504024055 | 58 | 188 | 0.0 | 0.9 | 0.00 | 0.00 | 0.00 | 40 | 1006.7 |
| 20260504023552 | 59 | 214 | 0.0 | 0.0 | 0.00 | 0.00 | 0.00 | 40 | 1006.6 |
| 20260504023048 | 60 | 204 | 0.0 | 0.9 | 0.00 | 0.00 | 0.00 | 39 | 1006.4 |
| 20260504022544 | 60 | 224 | 0.0 | 1.7 | 0.00 | 0.00 | 0.00 | 39 | 1006.6 |
| 20260504022040 | 60 | 141 | 0.0 | 0.0 | 0.00 | 0.00 | 0.00 | 38 | 1006.4 |
| 20260504021538 | 60 | 200 | 0.0 | 0.0 | 0.00 | 0.00 | 0.00 | 39 | 1006.4 |
| 20260504021035 | 60 | 194 | 0.0 | 0.0 | 0.00 | 0.00 | 0.00 | 39 | 1006.5 |
| 20260504020532 | 60 | 165 | 0.0 | 0.0 | 0.00 | 0.00 | 0.00 | 40 | 1006.4 |
| 20260504020028 | 61 | 210 | 0.0 | 0.0 | 0.00 | 0.00 | 0.00 | 39 | 1006.7 |
| 20260504015524 | 62 | 204 | 0.0 | 0.0 | 0.00 | 0.00 | 0.00 | 39 | 1006.6 |
| 20260504015020 | 63 | 185 | 0.0 | 0.9 | 0.00 | 0.00 | 0.00 | 37 | 1006.6 |
| 20260504014517 | 63 | 177 | 0.9 | 2.6 | 0.00 | 0.00 | 0.00 | 35 | 1006.6 |
| 20260504014014 | 64 | 179 | 1.7 | 2.6 | 0.00 | 0.00 | 0.00 | 34 | 1006.5 |
| 20260504013512 | 64 | 192 | 1.7 | 2.6 | 0.00 | 0.00 | 0.00 | 34 | 1006.6 |
| 20260504013009 | 64 | 222 | 2.6 | 4.3 | 0.00 | 0.00 | 0.00 | 34 | 1006.7 |
| 20260504012506 | 64 | 196 | 0.9 | 4.3 | 0.00 | 0.00 | 0.00 | 34 | 1006.6 |
| 20260504012004 | 65 | 219 | 0.9 | 4.3 | 0.00 | 0.00 | 0.00 | 34 | 1006.8 |
| 20260504011500 | 65 | 212 | 4.3 | 5.2 | 0.00 | 0.00 | 0.00 | 33 | 1006.5 |
| 20260504010955 | 65 | 215 | 1.7 | 5.2 | 0.00 | 0.00 | 0.00 | 33 | 1006.6 |
| 20260504010452 | 66 | 232 | 0.9 | 1.7 | 0.00 | 0.00 | 0.00 | 34 | 1006.7 |
| 20260504005948 | 66 | 182 | 0.9 | 4.3 | 0.00 | 0.00 | 0.00 | 33 | 1006.6 |
| 20260504005445 | 66 | 190 | 1.7 | 4.3 | 0.00 | 0.00 | 0.00 | 32 | 1006.7 |
| 20260504004943 | 67 | 183 | 1.7 | 4.3 | 0.00 | 0.00 | 0.00 | 31 | 1006.6 |
| 20260504004440 | 67 | 199 | 2.6 | 5.2 | 0.00 | 0.00 | 0.00 | 31 | 1006.7 |
| 20260504003937 | 66 | 217 | 2.6 | 6.1 | 0.00 | 0.00 | 0.00 | 32 | 1006.8 |
| 20260504003433 | 67 | 176 | 0.9 | 5.2 | 0.00 | 0.00 | 0.00 | 32 | 1006.7 |
| 20260504002930 | 68 | 216 | 1.7 | 2.6 | 0.00 | 0.00 | 0.00 | 31 | 1006.7 |
| 20260504002427 | 67 | 215 | 0.0 | 2.6 | 0.00 | 0.00 | 0.00 | 31 | 1006.8 |
| 20260504001924 | 67 | 205 | 1.7 | 5.2 | 0.00 | 0.00 | 0.00 | 30 | 1006.8 |
| 20260504001422 | 67 | 241 | 2.6 | 7.0 | 0.00 | 0.00 | 0.00 | 30 | 1006.7 |
| 20260504000918 | 68 | 224 | 1.7 | 5.2 | 0.00 | 0.00 | 0.00 | 29 | 1007.0 |
| 20260504000416 | 67 | 205 | 2.6 | 5.2 | 0.00 | 0.00 | 0.00 | 29 | 1007.1 |
| 20260503235913 | 68 | 204 | 7.0 | 7.8 | 0.00 | 0.00 | 0.00 | 28 | 1007.0 |
| 20260503235410 | 69 | 190 | 3.5 | 7.0 | 0.00 | 0.00 | 0.00 | 28 | 1007.1 |
| 20260503234908 | 69 | 161 | 1.7 | 8.7 | 0.00 | 0.00 | 0.00 | 27 | 1007.0 |
| 20260503234405 | 69 | 230 | 3.5 | 8.7 | 0.00 | 0.00 | 0.00 | 28 | 1006.8 |
| 20260503233903 | 69 | 229 | 4.3 | 7.8 | 0.00 | 0.00 | 0.00 | 27 | 1007.0 |
| 20260503233359 | 69 | 231 | 0.9 | 7.8 | 0.00 | 0.00 | 0.00 | 27 | 1006.8 |
| 20260503232855 | 69 | 162 | 3.5 | 6.1 | 0.00 | 0.00 | 0.00 | 28 | 1006.9 |
| 20260503232353 | 69 | 231 | 4.3 | 6.1 | 0.00 | 0.00 | 0.00 | 27 | 1007.0 |
| 20260503231851 | 69 | 244 | 5.2 | 7.8 | 0.00 | 0.00 | 0.00 | 27 | 1007.3 |
| 20260503231347 | 69 | 229 | 2.6 | 7.8 | 0.00 | 0.00 | 0.00 | 27 | 1007.1 |
| 20260503230843 | 69 | 259 | 1.7 | 7.0 | 0.00 | 0.00 | 0.00 | 26 | 1007.0 |
| 20260503230340 | 69 | 197 | 1.7 | 7.8 | 0.00 | 0.00 | 0.00 | 26 | 1007.1 |
| 20260503225839 | 69 | 259 | 3.5 | 5.2 | 0.00 | 0.00 | 0.00 | 26 | 1007.2 |
| 20260503225334 | 69 | 232 | 4.3 | 13.0 | 0.00 | 0.00 | 0.00 | 26 | 1007.2 |
| 20260503224830 | 69 | 217 | 7.8 | 11.3 | 0.00 | 0.00 | 0.00 | 27 | 1007.2 |
| 20260503224328 | 69 | 231 | 3.5 | 6.1 | 0.00 | 0.00 | 0.00 | 27 | 1007.1 |
| 20260503223826 | 70 | 155 | 3.5 | 6.1 | 0.00 | 0.00 | 0.00 | 26 | 1007.3 |
| 20260503223323 | 70 | 129 | 0.9 | 1.7 | 0.00 | 0.00 | 0.00 | 26 | 1007.3 |
| 20260503222818 | 70 | 266 | 1.7 | 4.3 | 0.00 | 0.00 | 0.00 | 27 | 1007.3 |
| 20260503222317 | 69 | 232 | 4.3 | 6.1 | 0.00 | 0.00 | 0.00 | 27 | 1007.5 |
| 20260503221815 | 69 | 160 | 0.9 | 8.7 | 0.00 | 0.00 | 0.00 | 27 | 1007.2 |
| 20260503221313 | 69 | 184 | 3.5 | 9.6 | 0.00 | 0.00 | 0.00 | 26 | 1007.5 |
| 20260503220809 | 70 | 226 | 4.3 | 11.3 | 0.00 | 0.00 | 0.00 | 26 | 1007.5 |
| 20260503220306 | 69 | 215 | 5.2 | 7.8 | 0.00 | 0.00 | 0.00 | 26 | 1007.5 |
| 20260503215803 | 68 | 235 | 2.6 | 7.0 | 0.00 | 0.00 | 0.00 | 27 | 1007.5 |
| 20260503215259 | 69 | 255 | 6.1 | 8.7 | 0.00 | 0.00 | 0.00 | 26 | 1007.6 |
| 20260503214757 | 69 | 158 | 0.9 | 7.0 | 0.00 | 0.00 | 0.00 | 26 | 1007.7 |
| 20260503214254 | 69 | 244 | 1.7 | 12.2 | 0.00 | 0.00 | 0.00 | 26 | 1007.8 |
| 20260503213752 | 70 | 267 | 2.6 | 5.2 | 0.00 | 0.00 | 0.00 | 25 | 1007.6 |
| 20260503213249 | 69 | 218 | 0.9 | 7.0 | 0.00 | 0.00 | 0.00 | 25 | 1007.5 |
| 20260503212746 | 68 | 246 | 3.5 | 11.3 | 0.00 | 0.00 | 0.00 | 27 | 1007.7 |
| 20260503212244 | 69 | 205 | 7.0 | 11.3 | 0.00 | 0.00 | 0.00 | 25 | 1007.4 |
| 20260503211741 | 69 | 176 | 0.9 | 7.0 | 0.00 | 0.00 | 0.00 | 26 | 1007.4 |
| 20260503211238 | 69 | 242 | 7.0 | 9.6 | 0.00 | 0.00 | 0.00 | 26 | 1007.8 |
| 20260503210733 | 69 | 199 | 4.3 | 11.3 | 0.00 | 0.00 | 0.00 | 26 | 1007.8 |
| 20260503210231 | 70 | 190 | 0.0 | 6.1 | 0.00 | 0.00 | 0.00 | 29 | 1007.8 |
| 20260503205726 | 69 | 172 | 1.7 | 7.8 | 0.00 | 0.00 | 0.00 | 26 | 1008.0 |
| 20260503205222 | 69 | 92 | 1.7 | 8.7 | 0.00 | 0.00 | 0.00 | 25 | 1007.8 |
| 20260503204718 | 70 | 215 | 5.2 | 7.0 | 0.00 | 0.00 | 0.00 | 26 | 1007.7 |
| 20260503204217 | 69 | 266 | 1.7 | 5.2 | 0.00 | 0.00 | 0.00 | 30 | 1007.8 |
| 20260503203713 | 69 | 152 | 3.5 | 12.2 | 0.00 | 0.00 | 0.00 | 29 | 1007.8 |
| 20260503203211 | 69 | 276 | 4.3 | 7.8 | 0.00 | 0.00 | 0.00 | 29 | 1007.9 |
| 20260503202708 | 69 | 196 | 2.6 | 7.8 | 0.00 | 0.00 | 0.00 | 28 | 1007.7 |
| 20260503202206 | 69 | 153 | 1.7 | 6.1 | 0.00 | 0.00 | 0.00 | 30 | 1008.0 |
| 20260503201704 | 68 | 204 | 1.7 | 11.3 | 0.00 | 0.00 | 0.00 | 32 | 1008.1 |
| 20260503201201 | 68 | 247 | 5.2 | 11.3 | 0.00 | 0.00 | 0.00 | 31 | 1008.0 |
| 20260503200657 | 69 | 248 | 2.6 | 11.3 | 0.00 | 0.00 | 0.00 | 29 | 1008.0 |
| 20260503200153 | 69 | 216 | 5.2 | 13.0 | 0.00 | 0.00 | 0.00 | 31 | 1008.1 |
| 20260503195650 | 68 | 237 | 2.6 | 9.6 | 0.00 | 0.00 | 0.00 | 30 | 1008.1 |
| 20260503195147 | 68 | 253 | 7.0 | 11.3 | 0.00 | 0.00 | 0.00 | 30 | 1008.1 |
| 20260503194644 | 69 | 203 | 7.8 | 14.8 | 0.00 | 0.00 | 0.00 | 30 | 1008.2 |
| 20260503194140 | 69 | 231 | 2.6 | 8.7 | 0.00 | 0.00 | 0.00 | 33 | 1008.1 |
| 20260503193637 | 70 | 238 | 5.2 | 7.0 | 0.00 | 0.00 | 0.00 | 31 | 1008.2 |
| 20260503193132 | 69 | 161 | 4.3 | 7.8 | 0.00 | 0.00 | 0.00 | 32 | 1008.3 |
| 20260503192628 | 68 | 192 | 1.7 | 8.7 | 0.00 | 0.00 | 0.00 | 33 | 1008.2 |
| 20260503192124 | 68 | 193 | 3.5 | 7.8 | 0.00 | 0.00 | 0.00 | 35 | 1008.2 |
| 20260503191621 | 69 | 264 | 5.2 | 12.2 | 0.00 | 0.00 | 0.00 | 34 | 1008.2 |
| 20260503191118 | 69 | 150 | 5.2 | 8.7 | 0.00 | 0.00 | 0.00 | 33 | 1008.3 |
| 20260503190615 | 68 | 188 | 2.6 | 6.1 | 0.00 | 0.00 | 0.00 | 36 | 1008.2 |
| 20260503190112 | 69 | 188 | 1.7 | 2.6 | 0.00 | 0.00 | 0.00 | 35 | 1008.4 |
| 20260503185608 | 68 | 292 | 4.3 | 8.7 | 0.00 | 0.00 | 0.00 | 34 | 1008.3 |
| 20260503185108 | 68 | 229 | 6.1 | 9.6 | 0.00 | 0.00 | 0.00 | 33 | 1008.7 |